Theta_e
298 298 299 299 299 299 298 299 300 300 299 298 297 297 297 297 297 297 297 297 297 297 297 297 297 297 296 296 296 296 296 296 296 297 299 299 298 297 296 296 296 295 295 296 296 296 297 297 298 299 300 300 300 299 299 299 299 299 299 299 299 300 300 300 300 300 300 300 301
297 298 299 301 302 301 300 299 300 300 300 299 298 297 297 297 297 296 296 296 296 297 297 297 297 296 296 296 296 296 296 296 296 297 297 298 297 296 296 295 295 295 296 296 296 297 298 297 298 299 300 300 300 300 299 300 300 299 299 299 300 300 300 300 300 300 300 301 301
297 297 298 299 299 299 299 299 298 298 298 298 298 297 297 297 297 296 296 296 296 296 296 297 297 297 296 296 296 296 296 296 296 296 297 297 296 296 296 296 295 296 297 297 297 297 298 298 299 300 301 301 300 300 300 300 300 300 300 300 300 301 301 301 301 301 302 301 302
296 297 297 297 297 297 297 299 297 297 296 297 296 296 296 296 297 297 296 296 295 296 296 297 297 297 297 297 296 296 297 298 298 298 297 297 297 296 296 296 296 296 297 297 297 297 298 298 299 301 301 300 300 300 300 301 301 301 301 301 301 301 301 301 302 302 302 302 302
296 296 297 297 296 296 296 296 296 295 295 296 296 296 296 296 297 296 296 297 296 297 297 296 297 297 297 297 296 296 296 297 300 299 298 297 297 296 297 296 297 297 297 298 298 298 298 298 300 301 301 300 301 301 301 301 300 300 301 301 302 302 302 302 302 302 302 302 302
296 296 296 296 296 295 295 295 295 295 295 296 295 295 295 297 297 296 296 296 296 296 296 297 297 298 298 297 296 296 296 296 297 297 297 297 297 297 297 297 297 298 298 298 298 299 299 299 300 301 301 301 301 301 301 300 300 300 300 300 301 301 301 302 302 302 302 302 303
296 296 295 295 295 295 295 295 295 295 295 295 295 295 295 295 295 295 295 295 295 296 296 298 298 297 297 296 296 296 296 297 297 297 297 297 298 298 298 298 298 298 298 299 299 299 300 299 300 301 301 302 301 301 300 300 300 300 299 299 300 300 301 302 302 302 303 303 303
296 296 295 295 294 294 294 295 295 295 295 295 295 294 294 294 294 294 294 295 295 295 296 297 296 296 296 296 295 296 296 297 297 297 297 298 298 298 298 298 298 299 299 299 299 300 300 300 301 300 301 301 301 301 300 300 299 299 299 299 300 301 302 302 302 303 303 302 302
295 295 295 295 294 294 294 295 295 295 295 295 294 294 294 294 294 294 294 294 295 296 296 297 296 295 296 296 296 296 296 297 297 297 297 298 298 298 298 299 299 299 299 299 299 299 299 300 301 301 300 300 300 300 300 299 299 299 299 299 300 300 301 302 302 302 302 302 301
295 295 295 294 294 294 294 294 295 295 295 294 294 294 295 297 296 295 294 295 296 296 296 296 296 296 296 296 296 296 297 296 297 297 297 298 298 298 298 299 299 299 299 300 300 300 299 300 300 300 300 300 300 299 299 299 299 298 299 299 300 300 300 301 301 301 301 301 300
295 294 294 294 294 295 295 294 294 295 295 294 294 294 294 297 296 296 296 296 296 296 295 296 296 296 296 296 296 296 297 297 297 297 297 298 298 298 298 299 299 299 299 299 300 300 300 300 299 299 299 299 299 299 299 299 299 298 298 299 299 299 299 299 300 301 301 300 300
295 295 294 294 294 295 295 294 294 294 294 294 294 293 293 294 294 295 296 296 295 295 296 296 296 296 296 297 296 297 297 297 297 297 298 298 298 298 298 298 299 299 299 299 299 300 300 299 299 299 299 298 299 299 299 299 298 298 298 298 298 298 298 299 299 300 300 300 300
295 294 294 294 294 294 294 294 294 294 294 294 293 293 293 293 295 296 296 295 295 296 296 296 296 296 296 296 296 296 297 297 297 297 298 298 298 298 299 299 299 299 299 299 299 299 299 299 299 298 298 298 299 299 299 298 298 298 298 298 298 298 298 299 299 299 300 300 300
294 294 293 293 293 293 294 293 294 293 293 293 293 293 293 293 295 295 296 295 295 295 295 295 296 296 297 296 296 296 297 297 297 297 298 298 299 299 299 299 299 299 299 299 299 299 299 299 298 298 298 298 298 298 298 298 298 298 298 298 298 298 298 298 299 299 299 300 300
292 292 292 292 293 293 293 293 293 293 293 293 293 293 293 293 294 295 296 295 295 295 295 295 295 296 297 297 296 296 296 297 297 297 298 298 299 299 298 298 298 298 298 299 299 298 298 298 298 298 298 298 298 298 298 298 298 298 298 298 298 298 298 298 299 299 299 300 300
291 291 291 292 292 292 292 292 293 293 293 293 293 293 292 292 293 294 295 295 295 295 295 295 295 295 296 297 297 297 297 297 297 297 297 298 298 298 298 298 298 298 298 298 298 298 298 298 298 298 298 298 298 298 298 298 298 298 298 298 298 298 298 299 299 299 299 300 300
291 291 291 291 291 291 291 292 292 293 293 292 292 292 292 292 293 294 296 296 295 295 295 295 295 295 296 297 297 297 297 297 297 297 297 297 297 297 298 298 298 298 298 298 298 298 298 299 299 299 299 298 298 298 298 298 298 298 298 298 299 299 299 299 299 300 300 300 301
290 290 290 290 290 291 291 291 291 292 292 292 292 292 292 292 292 293 295 296 295 295 294 294 295 295 295 295 296 296 297 296 296 296 297 297 297 297 297 297 298 298 298 298 298 298 298 298 299 299 299 298 298 298 298 298 298 298 298 298 298 299 299 299 300 300 300 301 302
290 290 290 290 290 290 291 291 291 291 291 291 291 292 292 292 292 292 293 293 294 294 294 293 294 294 294 295 295 296 297 297 297 297 297 297 297 297 297 298 298 298 298 298 298 298 298 298 298 299 299 298 298 298 298 298 298 298 298 298 298 298 299 299 300 300 301 302 302
290 290 290 290 290 290 290 291 291 291 291 291 291 291 291 291 291 292 292 292 293 293 293 293 293 294 294 294 295 295 296 297 296 296 297 297 297 297 297 297 297 298 298 298 298 298 298 298 298 298 298 298 298 298 298 298 298 298 298 298 298 299 299 300 300 301 301 302 302
290 290 290 290 290 290 290 290 291 290 290 290 290 290 290 291 291 291 292 292 293 293 293 293 293 294 294 294 295 295 295 296 296 296 296 296 297 297 297 297 297 297 298 298 298 298 298 298 298 298 298 298 298 298 298 298 298 298 299 299 299 299 299 300 300 301 301 302 302
290 290 290 290 290 290 290 290 290 290 290 290 290 290 290 291 291 291 292 293 293 293 293 293 294 294 294 295 295 295 295 296 296 296 296 296 296 297 297 297 297 297 297 297 297 297 298 298 298 298 298 298 297 298 298 298 299 299 299 299 299 299 299 300 300 300 301 301 301
290 290 290 290 290 291 292 291 290 290 290 290 290 290 290 291 291 292 292 293 293 293 293 294 294 294 294 295 294 294 294 294 294 295 295 295 295 296 296 296 296 296 296 297 297 297 297 297 297 297 297 297 297 298 298 299 299 299 299 299 299 299 299 299 300 300 300 301 301
290 290 290 291 290 291 291 291 291 290 290 290 290 290 290 291 291 291 292 292 292 292 293 294 294 294 293 293 293 293 293 293 293 294 294 294 295 295 295 296 296 296 296 297 298 299 299 299 298 299 299 299 299 299 299 299 299 299 299 298 298 299 299 299 299 300 300 300 301
290 290 290 290 290 290 290 290 290 290 290 290 290 291 290 291 291 291 291 291 292 292 292 292 292 292 292 292 292 292 292 292 293 293 293 293 294 294 295 295 295 296 296 298 301 303 304 304 302 301 300 300 300 300 300 300 299 299 299 299 299 299 299 299 299 299 299 299 300
290 290 290 290 290 290 290 290 290 290 290 290 290 290 291 291 291 291 292 291 291 292 292 291 291 292 293 292 292 292 292 292 292 292 293 293 293 294 294 295 295 296 297 300 303 304 305 306 305 304 302 300 300 300 300 300 300 299 299 299 299 299 299 299 299 299 299 299 300
289 290 290 290 290 290 290 290 290 290 290 290 290 290 291 291 291 292 291 291 291 291 291 290 290 292 294 292 291 291 291 292 292 292 292 293 293 293 293 294 295 295 297 301 304 305 306 306 306 305 304 302 301 300 300 300 300 300 299 299 299 299 299 299 298 298 299 299 300
289 289 289 289 290 289 289 289 289 289 290 290 290 290 291 291 291 291 291 291 291 291 290 290 291 292 292 292 291 291 291 292 292 292 293 293 293 293 293 294 294 296 299 303 304 305 306 306 306 306 305 304 302 301 301 300 300 300 299 299 299 299 299 298 299 299 299 299 300
289 289 289 289 289 289 289 289 289 289 290 290 290 291 291 291 291 291 290 290 290 290 290 290 291 292 291 291 291 291 291 291 292 292 292 292 293 293 293 294 294 296 300 304 305 305 305 306 306 306 306 305 303 302 301 301 300 300 299 299 299 299 299 299 299 299 299 299 299
289 289 289 289 289 289 289 289 289 289 289 290 290 290 290 290 290 290 290 290 289 290 290 291 291 291 291 291 291 291 292 292 292 292 292 292 292 292 293 295 295 296 299 304 305 305 305 306 306 306 306 306 305 303 302 301 300 300 299 299 299 299 299 299 299 299 299 299 299
289 289 289 289 289 289 289 289 289 289 289 290 290 290 290 290 289 289 289 289 290 291 292 292 291 291 291 291 291 291 292 292 292 292 292 292 293 294 294 294 294 296 299 303 304 305 305 306 306 306 306 306 305 303 301 301 300 299 299 298 298 299 299 299 299 299 299 299 299
289 289 289 289 289 289 289 289 289 289 289 289 289 289 289 289 289 289 289 290 291 291 291 291 291 290 291 291 291 291 292 292 292 292 293 293 293 293 293 294 294 296 299 303 304 305 305 306 306 306 306 306 305 303 301 300 299 299 298 298 298 299 299 299 299 299 299 299 300
289 289 289 289 289 289 289 289 289 289 289 289 289 289 289 289 288 289 289 290 291 291 290 290 290 290 291 291 291 291 292 292 292 293 295 295 294 293 293 294 294 297 300 303 304 305 306 306 306 306 306 306 305 302 300 299 299 299 298 298 298 298 299 299 299 299 299 300 300
289 289 289 289 289 289 289 289 289 289 289 288 288 288 288 288 288 289 289 291 291 291 291 291 291 291 291 291 291 291 292 294 293 293 292 292 292 292 293 293 294 297 301 304 305 305 305 306 306 306 306 306 304 301 299 299 298 298 298 298 298 298 298 299 299 299 300 301 301
289 289 289 289 289 289 289 289 289 288 288 288 288 288 288 288 289 289 290 292 293 292 291 291 291 291 291 291 291 291 292 293 292 292 292 292 292 293 293 293 294 298 302 304 305 305 305 306 306 306 306 305 302 300 299 298 298 298 298 298 298 298 299 299 300 300 301 302 302
289 289 289 289 289 289 288 288 288 288 288 288 288 288 288 288 289 289 291 293 293 292 291 291 291 291 291 291 291 292 292 292 292 292 292 293 293 293 293 293 294 297 301 304 304 305 305 305 306 305 305 303 301 299 299 299 299 298 298 298 298 298 298 299 299 300 301 302 302
289 289 289 289 288 288 288 287 287 287 287 288 288 288 288 288 289 289 291 293 291 291 291 291 291 291 291 291 291 291 292 292 292 292 293 294 294 293 293 293 294 296 300 303 304 305 305 305 305 305 304 302 300 299 299 299 298 298 297 297 297 298 298 299 299 300 301 302 303
289 289 289 289 288 288 287 287 287 287 287 287 288 288 288 289 289 290 291 293 291 290 290 291 291 291 291 291 291 292 292 292 293 293 293 294 293 293 293 294 294 296 299 302 304 305 305 305 305 305 303 301 300 299 299 298 298 297 297 297 297 298 298 299 300 301 302 302 304
289 289 289 288 288 288 287 287 287 287 287 288 288 288 288 289 289 290 292 293 292 291 291 291 291 291 291 292 293 293 292 292 293 294 294 293 294 295 296 295 295 296 298 302 303 304 304 304 304 305 304 302 299 299 298 298 298 297 297 297 297 297 298 299 300 301 302 302 305
288 288 288 288 288 288 287 287 287 287 287 288 288 288 289 289 291 292 293 293 291 291 291 291 291 291 292 295 294 293 292 292 292 293 293 294 295 297 299 297 296 296 297 300 302 303 304 304 304 304 303 301 299 298 298 299 298 297 297 297 297 298 299 300 301 301 301 301 303
288 288 288 288 288 288 288 287 287 287 288 288 288 289 290 291 292 292 292 291 291 291 291 291 291 292 293 295 294 293 292 292 292 292 293 295 295 297 298 296 295 294 295 297 300 302 303 303 304 304 303 301 299 299 299 299 298 297 296 297 297 298 300 300 300 300 300 299 300
Wind_Speed
6 6 5 5 5 4 4 4 4 4 4 4 4 4 4 4 4 4 3 3 3 3 3 3 3 3 3 3 4 5 5 5 5 5 6 6 6 6 5 5 4 4 4 4 4 4 4 4 4 4 4 4 5 5 5 5 5 6 7 7 7 8 8 10 11 11 12 12 11
6 6 6 6 5 4 4 3 4 4 4 4 4 4 4 4 4 4 3 3 3 3 3 3 3 3 3 4 5 5 5 5 6 6 6 6 6 6 5 5 5 4 4 4 4 4 4 4 4 4 4 4 5 5 5 5 5 6 8 9 8 7 8 9 10 10 11 11 10
7 7 6 5 5 4 4 3 4 4 4 4 4 4 4 4 4 3 3 3 3 3 2 2 2 3 4 5 5 5 5 5 5 6 6 6 6 6 6 5 5 5 5 5 5 5 5 5 5 5 5 5 5 6 6 6 6 7 8 9 7 7 7 7 8 9 9 8 10
7 7 6 5 6 5 5 4 5 5 5 4 3 3 3 3 3 3 3 3 2 2 3 3 3 4 4 5 5 5 5 5 6 6 6 6 6 6 6 6 6 6 5 5 5 5 6 5 5 5 5 6 6 6 6 6 6 6 6 7 6 6 7 7 8 8 8 8 9
7 7 6 6 7 7 6 5 6 5 5 4 3 3 3 3 2 2 2 2 2 3 4 4 4 4 4 4 5 5 5 6 6 6 6 6 7 7 6 6 6 6 6 6 6 6 6 6 5 5 5 6 6 6 6 7 7 7 6 6 6 6 6 7 8 8 8 9 9
7 6 6 6 7 6 6 5 6 5 4 3 3 3 3 2 2 2 2 3 4 4 4 4 4 4 4 4 5 5 5 6 6 6 6 7 6 7 7 7 7 7 6 6 7 7 7 6 5 5 5 6 6 6 7 7 7 7 7 6 6 6 6 8 8 8 8 10 11
7 7 7 7 7 6 6 5 5 4 4 4 4 4 4 3 3 3 4 4 4 3 3 3 3 4 4 5 5 5 5 6 6 6 6 6 6 7 7 7 7 7 7 7 7 7 7 7 6 6 6 6 6 6 7 8 7 7 7 7 7 6 6 8 8 8 10 12 14
7 7 7 8 8 7 7 6 5 4 4 4 5 5 5 5 5 5 4 4 3 3 3 3 4 4 5 5 5 6 6 6 6 6 6 6 7 7 7 7 7 7 8 8 8 8 8 7 6 6 6 6 6 7 8 8 8 9 9 9 8 7 7 8 8 9 11 13 15
6 7 7 7 7 7 7 6 6 5 5 5 5 6 6 6 6 5 4 4 4 4 3 3 4 5 5 5 6 6 6 6 6 6 6 6 7 7 7 7 7 8 8 8 8 8 8 7 6 6 6 6 6 7 8 9 10 10 10 9 9 9 9 10 10 12 13 14 16
7 7 7 7 7 7 6 6 6 6 6 6 6 6 6 6 6 5 4 4 4 3 3 4 4 5 5 6 6 6 6 6 6 6 7 7 7 8 8 8 8 8 9 8 8 8 8 7 7 7 7 6 8 8 9 10 10 11 10 9 10 11 12 12 13 14 14 15 16
8 7 7 7 7 7 6 6 6 6 6 6 6 6 5 6 5 5 4 3 3 3 4 5 5 6 6 6 6 6 6 6 6 6 7 7 8 8 8 8 9 9 9 9 8 8 7 7 8 9 9 8 8 9 10 10 11 11 11 10 11 12 13 14 14 14 14 15 16
9 8 7 7 7 7 6 6 6 5 6 6 6 5 5 5 5 4 4 3 4 4 5 5 6 6 6 6 6 6 6 6 6 7 7 8 8 9 9 9 10 10 10 10 8 7 7 7 8 10 10 10 9 9 9 11 11 12 12 12 12 12 13 14 15 14 13 14 15
9 8 7 7 7 7 6 6 5 5 5 6 6 5 5 5 5 4 4 5 5 5 5 5 5 6 6 6 6 6 6 6 7 7 7 8 9 9 9 10 10 10 10 10 9 8 8 8 10 11 11 11 10 10 10 12 12 12 12 13 13 13 14 15 15 15 15 15 15
8 8 7 7 7 6 6 6 5 5 5 6 6 6 5 5 5 5 5 5 6 6 6 5 5 5 5 6 6 6 6 7 7 8 8 9 9 9 10 10 10 10 10 9 9 9 9 10 10 11 12 12 12 12 12 12 12 12 13 13 13 14 14 15 15 16 15 16 16
8 8 7 7 6 6 6 6 5 5 5 6 6 5 5 5 5 5 5 5 6 6 5 5 5 5 6 6 6 7 7 7 7 8 9 9 10 10 10 10 10 10 10 10 9 9 10 11 11 12 12 12 13 13 13 13 13 12 12 13 13 14 14 15 15 15 15 15 16
8 7 6 6 6 6 5 5 4 4 5 5 5 5 5 5 5 4 5 5 5 5 5 5 5 5 5 6 6 7 7 7 7 8 9 9 10 10 10 10 10 11 11 11 10 10 10 11 11 12 12 13 13 13 13 13 13 13 13 13 14 14 14 15 15 15 15 15 16
7 6 6 6 6 6 5 5 4 4 5 5 5 5 5 5 4 4 5 5 5 5 5 6 5 5 5 6 6 6 6 7 7 8 8 9 10 10 10 10 11 11 11 11 11 11 11 11 11 12 12 13 13 13 13 13 13 13 13 14 14 14 14 15 15 15 15 15 16
7 6 6 6 6 6 6 5 5 5 5 5 5 5 4 4 4 4 4 5 5 5 6 6 6 6 6 6 6 6 6 7 8 8 9 9 10 10 10 11 11 11 11 11 11 12 12 13 12 12 12 12 13 13 13 13 13 13 13 14 14 14 14 15 15 15 14 14 15
6 6 6 6 6 6 6 6 5 5 5 5 5 4 4 4 4 4 4 4 5 6 6 7 6 6 6 7 7 6 6 7 8 9 9 10 10 10 10 11 11 11 11 11 11 12 12 13 13 13 13 12 12 12 13 13 13 13 13 13 13 14 14 14 15 14 14 14 14
6 6 6 6 6 6 6 6 6 5 5 4 4 4 4 5 4 4 5 5 6 6 6 6 6 6 7 7 7 7 7 7 8 9 9 9 9 10 10 11 11 11 11 11 11 12 12 12 13 13 13 13 13 13 13 13 13 13 13 13 12 13 14 14 14 14 14 14 14
6 6 6 6 6 6 6 6 5 5 4 4 4 5 5 4 4 5 5 5 5 5 6 6 7 7 7 8 8 8 7 6 7 8 9 9 9 10 10 10 10 10 10 10 11 11 12 12 12 12 12 13 13 13 13 13 13 13 13 12 12 12 13 14 14 14 14 14 13
6 5 6 6 6 6 6 5 4 4 4 4 4 4 4 4 5 5 5 5 4 5 6 6 7 7 8 8 8 8 7 6 7 7 8 8 9 9 10 10 10 10 10 10 11 11 12 12 12 12 12 12 13 13 13 13 13 13 13 12 12 12 13 13 13 12 12 12 12
5 5 5 5 5 5 5 4 4 3 3 3 4 4 4 5 5 5 5 5 5 5 6 6 7 7 8 8 8 8 7 7 7 7 8 8 8 9 9 9 9 10 10 10 10 10 10 11 11 11 11 11 12 13 13 13 12 12 12 12 12 12 12 12 11 11 11 11 11
5 5 4 4 5 5 4 4 4 3 3 4 4 4 4 5 5 5 5 5 5 6 6 6 6 7 7 7 7 7 7 7 8 8 8 8 8 9 9 8 8 9 9 9 9 10 11 10 9 10 10 10 11 11 11 11 11 11 11 11 11 11 11 11 11 11 11 11 11
6 5 5 4 4 4 4 4 4 4 4 4 4 4 4 5 5 4 4 5 6 6 7 7 6 6 6 6 6 6 6 7 7 8 8 8 9 9 8 8 8 8 8 8 13 16 18 16 13 10 9 9 9 10 10 10 10 10 10 10 11 11 11 11 11 11 11 11 11
6 5 5 5 4 4 4 4 4 4 4 4 4 4 4 5 5 4 5 5 6 7 7 7 6 6 5 5 5 5 5 5 6 7 7 8 9 9 8 8 7 7 7 10 15 19 21 22 21 18 13 10 9 9 9 9 9 10 10 10 10 10 10 11 11 11 11 11 11
6 5 5 5 5 5 5 5 4 4 4 4 4 5 5 5 5 5 5 6 6 6 5 5 5 5 5 4 5 5 5 5 6 7 8 8 9 9 9 8 7 7 8 12 17 20 22 23 24 23 19 13 10 9 9 9 9 10 10 10 10 10 10 11 11 12 12 12 12
6 5 5 5 4 5 4 4 4 4 4 4 5 5 5 5 5 5 5 5 5 4 4 4 4 3 3 3 4 5 6 6 6 7 7 8 9 9 9 8 8 8 11 15 19 22 23 24 24 24 23 18 12 10 9 9 9 9 9 8 9 9 10 10 10 11 11 12 13
6 5 5 5 5 4 4 4 4 5 5 5 5 5 5 5 5 5 4 4 4 4 4 4 3 3 3 4 5 6 6 7 6 6 7 7 8 9 9 9 9 10 14 19 21 22 23 24 24 25 24 22 14 10 8 7 8 8 8 7 8 8 9 9 10 10 11 12 12
6 6 5 5 5 5 4 4 5 5 5 5 5 5 5 5 4 4 4 4 4 4 4 3 3 3 4 5 5 5 6 6 6 6 7 8 8 8 9 10 9 11 14 18 21 22 23 24 24 25 25 24 17 12 8 7 7 7 7 7 8 9 10 10 11 12 12 12 12
6 6 6 6 5 5 4 5 5 5 5 5 5 5 5 4 4 4 4 4 4 4 4 3 3 4 5 5 5 5 6 6 6 7 7 8 9 10 10 10 10 11 14 18 21 22 23 24 24 25 25 25 18 13 9 8 7 7 7 7 9 10 10 10 11 12 12 13 13
6 6 6 5 5 5 5 5 5 5 5 5 5 5 4 4 4 4 3 3 3 3 3 3 4 5 5 5 5 6 6 7 7 7 8 8 9 9 9 10 10 11 14 18 21 23 24 24 24 24 25 25 19 14 10 9 8 8 8 8 9 10 10 10 10 11 13 13 13
6 6 6 5 5 5 5 5 5 5 5 5 4 4 4 4 3 3 3 2 2 3 3 4 4 5 5 5 5 6 6 7 8 8 9 9 9 9 9 10 9 11 14 19 21 23 24 24 24 24 25 25 19 14 10 9 7 7 7 8 8 9 10 11 11 12 12 13 12
6 6 5 6 6 5 5 5 5 4 4 4 4 3 3 3 3 3 3 3 3 3 3 4 4 4 5 5 5 6 7 8 8 8 8 8 9 9 9 9 8 11 15 20 22 23 24 24 24 24 24 24 16 11 9 9 7 7 7 8 8 9 9 10 11 12 12 12 11
6 6 6 6 6 6 5 5 4 4 3 3 3 3 3 3 3 3 3 3 3 3 3 4 4 4 4 5 5 6 7 8 8 8 8 8 8 9 10 10 9 12 17 21 23 24 24 24 24 24 23 20 12 9 8 8 8 7 8 8 8 9 9 10 10 11 11 11 11
6 6 6 6 6 6 6 5 4 4 3 3 4 3 3 3 3 3 3 3 3 3 3 4 4 4 4 5 5 6 7 8 8 8 9 9 9 9 10 11 10 13 17 21 22 23 24 24 24 23 21 16 9 7 7 7 7 7 7 8 8 9 9 10 10 10 10 10 11
7 7 7 6 6 6 5 5 4 4 4 4 4 3 3 3 3 3 3 3 3 3 4 4 4 4 5 5 5 6 7 7 7 8 9 10 9 10 10 11 11 13 16 19 21 23 23 23 23 22 19 13 9 7 7 6 6 6 7 7 8 8 9 9 9 9 10 10 11
7 7 7 6 6 6 5 4 4 4 4 4 4 3 3 3 3 3 3 3 3 4 4 4 5 5 5 5 6 6 7 7 8 8 9 10 10 10 10 11 11 12 13 17 20 22 22 21 21 20 17 12 9 8 7 6 6 6 7 7 7 8 8 7 7 8 9 11 13
7 7 7 7 6 6 5 5 4 4 4 4 3 3 3 3 3 3 3 3 3 4 4 4 5 5 6 6 6 6 7 7 8 8 9 10 10 11 12 12 11 11 13 16 19 20 20 19 19 19 18 13 9 7 7 6 6 7 7 7 7 7 8 7 7 7 8 11 15
7 7 7 6 6 6 5 5 5 4 4 3 3 3 3 3 3 3 3 3 3 4 4 4 5 6 7 7 7 7 7 7 8 8 9 9 11 13 14 12 11 11 13 15 17 17 17 18 19 19 18 12 9 7 6 6 7 7 7 7 7 7 7 7 7 7 8 9 12
6 6 6 6 6 6 5 5 5 4 4 3 4 4 4 3 3 3 3 3 3 4 4 5 6 6 7 7 7 7 7 8 8 8 9 9 10 12 13 11 11 10 11 12 13 15 16 18 19 20 18 13 9 7 6 6 7 8 8 8 7 7 7 7 7 7 7 8 8
Wind_Direction
182 180 178 175 176 179 184 193 197 199 199 201 206 209 208 204 208 210 209 197 197 200 205 208 209 214 222 228 232 238 244 249 253 254 255 255 255 256 257 257 256 254 254 255 258 263 269 274 278 282 285 284 285 283 282 279 278 277 276 274 274 273 272 271 271 270 269 267 266
183 180 176 175 177 180 186 195 203 207 208 208 208 208 206 202 202 204 204 201 200 202 205 213 216 222 231 238 240 241 244 249 252 255 257 258 258 257 257 256 252 249 249 252 256 263 270 274 278 282 284 284 283 282 281 278 275 275 274 272 271 271 270 270 269 269 268 268 266
183 179 175 175 178 182 190 201 208 213 215 216 213 206 199 195 193 195 199 203 202 203 208 221 226 231 236 242 244 244 244 246 248 252 255 258 259 258 257 254 252 250 250 252 256 261 266 270 275 279 282 283 282 282 281 279 276 274 273 271 271 270 269 267 268 268 268 267 264
181 178 176 181 184 189 194 203 209 213 214 213 206 196 190 188 188 189 192 197 202 211 220 228 233 236 238 241 245 247 247 246 247 250 254 258 260 260 259 257 257 256 256 256 258 262 264 265 271 277 279 279 278 277 277 277 275 272 271 271 271 269 268 267 269 271 272 270 267
184 181 182 186 190 194 199 202 204 208 208 201 191 188 189 188 186 184 187 199 219 226 230 230 233 236 238 237 241 244 247 248 250 253 257 261 263 264 263 262 261 260 260 260 261 263 264 265 269 273 274 274 272 271 270 271 271 271 270 270 269 267 266 266 270 272 272 271 268
188 187 188 190 193 197 200 201 200 200 197 185 180 185 194 197 192 196 206 218 228 233 233 232 234 236 238 237 239 242 247 250 253 257 260 264 266 267 267 265 262 261 261 262 262 263 264 265 270 272 272 271 270 268 267 266 268 269 269 270 269 269 269 270 272 272 270 268 267
189 189 192 194 195 197 198 198 195 191 186 177 181 191 201 205 205 211 217 223 229 234 235 234 232 233 235 238 243 247 252 256 259 261 262 264 266 266 265 264 262 261 261 262 263 264 264 264 269 272 272 272 272 269 266 264 265 267 269 270 269 269 269 270 271 270 269 267 267
189 191 193 195 195 195 195 195 191 188 186 186 192 199 205 208 211 215 220 225 230 231 230 228 228 231 234 240 247 252 256 259 262 263 263 264 264 264 264 263 263 263 262 262 263 263 264 263 266 268 269 269 270 269 267 265 266 267 269 271 271 271 270 270 269 269 268 269 269
193 194 195 194 194 193 193 192 189 189 192 198 202 205 206 207 209 212 218 226 227 226 225 226 230 235 239 244 249 252 255 257 259 261 261 261 262 262 263 263 264 264 263 263 262 262 262 264 265 265 265 265 267 268 268 267 268 269 269 270 271 271 271 270 270 271 271 272 273
196 196 195 195 196 195 193 192 191 192 195 202 207 208 208 208 208 210 213 219 221 224 229 232 236 240 244 248 251 253 254 254 255 257 258 259 260 260 261 262 263 264 265 264 264 263 263 264 264 263 262 262 264 266 267 267 267 267 267 268 269 270 271 271 271 272 273 273 274
195 195 194 195 197 195 192 192 195 196 198 203 208 210 210 210 210 211 211 212 218 229 235 238 239 242 246 249 251 252 251 252 252 254 257 259 260 260 261 262 262 264 265 265 265 264 265 264 264 263 262 262 263 264 266 266 266 265 266 266 268 269 271 272 272 272 272 273 273
194 193 193 193 193 192 190 193 198 201 203 206 210 211 211 211 212 213 215 217 226 234 239 240 240 241 244 248 249 250 251 250 252 255 258 261 262 262 262 263 264 264 265 265 265 265 264 263 263 264 264 264 264 265 266 266 266 266 266 267 267 268 270 271 271 271 271 272 274
190 189 190 191 190 188 189 195 199 203 206 209 211 212 214 215 214 214 216 222 230 237 242 243 240 239 239 243 245 248 250 252 253 257 260 263 264 265 265 265 265 265 266 266 264 263 262 262 263 264 265 266 266 265 266 266 267 267 268 269 269 270 270 271 271 272 273 274 276
184 184 185 186 185 186 189 195 201 204 207 211 214 215 216 218 218 216 217 222 231 237 242 244 242 239 237 238 241 245 249 253 256 259 262 264 266 266 267 267 266 266 266 266 264 262 261 262 263 264 266 267 267 267 267 267 268 268 269 270 270 270 270 271 272 274 275 276 277
179 179 180 179 180 183 188 195 201 204 206 211 215 215 216 219 221 219 219 223 230 234 238 241 243 243 242 241 243 246 250 255 258 261 264 266 267 267 267 267 266 266 265 265 264 263 262 262 263 265 266 267 268 269 269 269 269 269 269 269 270 270 270 271 273 274 276 277 278
175 176 176 174 177 182 188 195 200 203 205 211 214 214 214 218 220 219 219 222 229 233 236 238 242 246 249 249 250 251 254 257 260 262 264 265 266 266 266 266 266 265 265 265 266 265 265 264 265 266 267 268 269 270 271 271 271 271 270 269 269 269 269 271 273 274 275 276 277
173 174 174 172 177 184 191 197 202 204 206 211 213 214 214 215 218 219 219 221 226 231 237 240 243 247 252 256 256 256 257 259 260 261 262 263 263 264 264 264 265 265 266 267 268 269 269 268 267 268 268 269 270 271 271 272 272 271 270 269 269 269 269 271 273 274 275 276 276
173 174 174 174 181 188 194 199 203 206 209 212 214 214 214 213 215 219 222 222 223 228 235 242 244 248 251 255 257 258 259 261 261 261 262 262 263 264 265 266 266 267 267 268 269 270 271 271 271 270 270 271 271 271 271 271 271 270 269 269 269 270 270 272 273 274 275 275 275
173 175 176 179 186 192 196 201 203 207 210 211 212 214 215 215 214 219 224 227 225 227 232 240 245 248 250 252 255 258 260 261 261 262 263 264 265 266 267 268 268 269 269 269 270 270 271 272 272 272 272 272 272 272 271 270 270 269 269 268 269 270 271 272 273 274 274 274 274
174 176 180 184 188 193 198 201 203 205 208 208 209 213 217 218 216 219 225 232 231 231 234 241 247 251 253 253 255 257 259 261 261 262 264 265 267 267 268 268 269 270 270 270 271 271 272 272 273 273 273 274 274 273 272 271 270 269 268 268 268 269 270 272 273 275 275 275 275
176 180 184 186 189 193 198 202 202 204 205 207 209 213 216 220 220 223 227 233 236 238 240 244 248 251 254 256 258 258 259 261 261 262 264 265 266 267 267 268 270 271 272 272 273 273 273 273 274 274 274 275 274 273 272 271 270 269 269 268 268 268 269 271 273 276 277 278 277
180 183 185 187 190 193 197 201 200 201 203 208 210 213 217 222 226 228 231 236 240 243 245 247 248 250 252 254 256 258 260 263 264 264 264 265 266 267 268 269 271 273 274 274 275 275 275 275 275 274 274 273 272 271 270 270 270 270 270 269 268 268 270 272 275 277 278 279 278
180 183 184 186 189 193 196 198 198 200 203 210 214 218 222 227 231 234 238 241 245 247 248 250 250 250 250 251 253 256 260 265 267 267 267 266 268 269 270 272 273 275 275 276 275 276 276 276 274 272 270 268 268 267 267 268 268 269 270 271 271 273 274 276 277 278 279 279 278
178 180 183 184 186 190 193 195 196 202 209 215 219 222 226 231 236 240 245 247 248 248 249 252 252 252 252 252 253 255 258 262 267 269 270 270 271 272 274 275 275 275 275 275 275 276 276 275 272 269 266 264 264 265 266 267 269 271 273 276 279 280 281 281 280 280 280 279 279
175 178 180 182 185 187 190 192 198 206 213 219 222 225 229 234 238 241 246 249 250 251 251 252 255 256 257 258 258 257 257 259 264 268 272 274 275 276 277 278 278 276 275 275 278 280 281 282 281 278 274 272 272 273 274 275 276 278 280 283 285 287 287 286 284 282 281 280 280
172 175 179 182 183 186 191 197 203 209 215 220 224 228 233 236 237 241 245 249 251 251 251 252 255 258 260 262 263 264 264 263 265 268 271 276 278 279 279 280 279 278 276 277 281 284 287 289 291 292 291 288 286 286 286 285 285 285 286 287 288 288 289 289 288 287 285 284 283
170 175 181 182 183 189 196 202 204 208 215 221 226 231 235 238 240 242 246 248 250 252 252 253 254 257 260 263 266 269 270 270 270 271 272 274 277 278 279 280 279 277 277 280 284 288 291 295 297 298 298 296 294 292 291 290 290 290 289 289 288 288 288 288 289 289 289 289 288
172 177 180 180 186 194 201 203 206 213 219 224 227 231 235 239 242 244 247 248 250 253 255 256 254 255 260 266 268 269 270 272 273 273 273 274 275 276 277 279 279 278 280 284 289 293 296 299 300 301 301 300 297 294 292 291 292 292 291 290 289 288 287 287 288 289 290 291 292
174 176 178 181 192 200 205 206 211 217 222 225 229 233 237 242 243 245 246 248 251 254 255 255 256 261 268 271 270 272 273 275 275 274 275 276 277 277 278 279 280 281 285 289 294 297 299 301 302 302 302 302 299 297 295 293 293 292 291 290 289 288 287 287 288 289 291 292 293
173 175 179 186 195 202 207 211 215 219 223 226 230 235 239 243 244 244 243 245 246 248 249 251 260 268 270 269 272 275 276 277 277 277 278 278 279 280 280 281 282 284 288 292 295 298 300 302 302 302 302 303 301 299 296 294 292 292 291 290 289 288 287 288 289 290 291 292 293
174 175 180 187 195 203 210 214 216 220 224 228 232 235 237 240 240 238 237 236 241 247 253 260 267 269 269 269 273 275 277 278 279 279 279 279 281 282 282 283 283 285 288 292 296 298 300 302 302 302 303 303 302 301 298 295 293 291 289 288 288 288 288 289 289 289 290 290 292
175 176 180 187 197 206 212 216 219 222 226 229 231 233 233 233 230 229 226 229 242 254 264 271 272 273 274 275 277 277 278 280 280 279 278 278 279 281 283 284 284 285 288 292 296 299 301 302 303 303 303 304 303 301 299 296 293 290 287 285 285 286 287 287 287 287 287 288 289
175 177 182 189 199 208 215 219 221 224 227 229 229 228 227 226 228 231 235 239 247 256 262 265 268 270 273 276 278 279 280 280 279 279 278 278 279 281 283 285 284 286 289 293 297 299 302 303 303 304 304 304 304 302 300 296 292 289 286 285 284 284 284 284 284 285 285 286 288
176 180 186 194 202 210 217 222 223 223 224 225 224 222 220 221 232 243 250 252 252 253 255 258 260 263 266 270 274 277 280 282 282 281 280 280 281 283 284 286 285 287 291 294 297 300 302 303 304 304 304 305 304 302 299 295 291 288 286 285 284 283 283 283 283 284 285 286 287
179 184 192 200 207 213 218 222 221 218 215 215 221 222 223 224 234 242 248 253 257 259 260 261 262 265 269 271 273 275 279 282 283 283 283 282 283 284 286 286 285 288 291 295 298 300 302 303 303 304 305 306 305 301 298 295 292 290 288 287 287 286 285 285 285 286 286 287 288
182 187 195 204 210 214 217 217 213 208 206 211 219 225 231 235 238 240 245 255 261 265 266 268 269 272 274 276 276 277 278 280 282 284 285 286 286 287 287 288 287 289 292 295 297 299 301 302 303 305 306 307 306 303 301 298 296 294 292 291 290 288 288 288 288 289 289 290 289
187 191 196 204 209 212 211 206 199 198 203 213 218 224 231 237 243 244 246 254 260 265 267 269 271 272 273 273 274 275 275 276 280 283 286 288 289 289 288 289 288 289 291 293 296 298 300 302 304 306 308 309 309 309 307 305 302 298 296 294 292 291 290 289 290 291 291 290 290
192 192 194 199 204 204 201 193 190 196 206 216 219 222 225 229 240 245 248 252 255 260 265 268 269 269 269 269 272 273 275 276 279 283 286 289 289 289 289 289 288 288 290 293 296 299 301 304 307 309 312 313 314 313 311 307 303 300 298 296 294 292 291 290 292 293 292 290 290
193 191 191 192 195 194 192 187 191 197 205 213 221 225 229 230 238 243 247 249 248 253 259 265 267 267 268 271 274 277 279 280 281 284 287 288 289 290 291 291 291 291 293 295 298 301 304 307 310 314 316 316 315 312 308 304 301 299 298 296 294 292 291 292 293 292 290 286 290
190 185 183 184 186 186 186 188 195 200 203 206 218 226 232 235 241 246 249 250 248 251 256 262 265 267 270 276 279 281 284 285 285 285 286 287 289 292 294 295 294 294 295 297 299 303 307 312 315 318 319 316 313 308 303 301 301 300 299 296 295 294 294 295 294 291 288 285 289
181 176 175 177 179 180 182 190 199 203 204 205 217 223 229 235 242 247 252 253 253 255 259 263 267 269 273 279 282 285 286 287 287 285 285 287 289 293 296 296 295 294 294 295 298 305 311 317 319 320 319 315 310 305 303 303 304 303 301 298 297 297 298 299 298 294 289 287 289